Погода в Михайловке

Россия / Амурская область     49°54′56″N   128°50′41″E
темп.,
°C
ветер,
м/с
пор.,
м/с
влажн.,
%
обл.,
%
осадки,
мм/ч
давл.,
гПа
погр.,
м
3 марта, ср
ср300:00−16ююв3696100 0.0 1023123
03:00−16ююв4890100 0.1 1021149
06:00−15ююв4896100 0.4 1020226
09:00−13ююв5895100 0.8 1018290
12:00−10ююв689295 0.1 1016543
15:00−8ююв579398 0.3 1012506
18:00−11юв349591 0.1 101262
21:00−11ю239387 0.1 101221
4 марта, чт
чт400:00−11юв3494100 0.0 101150
03:00−12юв3596100 0.1 1009118
06:00−10юв2396100 0.6 1009106
09:00−9с119499 1.1 1011134
12:00−7сз2290100 0.1 1010376
15:00−9сз3393100 0.1 1010232
18:00−12ссз589398 0.0 1011288
21:00−14ссз7139199 0.1 1014545
5 марта, пт
пт500:00−17ссз61391100 0.1 1018670
03:00−22ссз8158397 0.1 1022481
06:00−26сз6168010 0.0 1026554
09:00−25сз714795 0.0 1028755
12:00−22сз7117828 0.0 10301010
15:00−19сз8127664 0.0 10311336
18:00−20сз41184100 0.0 1032396
21:00−22зсз498786 0.0 1034184
6 марта, сб
сб600:00−24зсз478945 0.0 103595
03:00−25зсз478822 0.0 103697
06:00−25з34870 0.0 103645
09:00−21зюз35840 0.0 1036140
12:00−17зюз35820 0.0 1033462
15:00−15з36790 0.0 1031486
18:00−19ююв11855 0.0 103020
21:00−20зюз34888 0.0 103126
7 марта, вс
вс700:00−19ююз239345 0.0 102922
03:00−18ююв349173 0.0 102778
06:00−16ююв3697100 0.3 1026162
09:00−14ю369599 0.6 1025317
12:00−12ююз3488100 0.1 1023480
15:00−11з2285100 0.2 1023478
18:00−14сз2392100 0.0 102420
21:00−16сз239363 0.0 102620